Weather History for Steamboat Springs, CO

Change the Weather History Date:

Saturday, June 15, 2013

  Actual Average Record
Temperature  
Mean Temperature 59 °F -  
Max Temperature 80 °F 73 °F 86 °F (1940)
Min Temperature 38 °F 36 °F 26 °F (1915)
Degree Days  
Heating Degree Days 6    
Growing Degree Days 9 (Base 50)    
Moisture  
Dew Point 22 °F    
Average Humidity 32    
Maximum Humidity 73    
Minimum Humidity 5    
Precipitation  
Precipitation 0.00 in - - ()
Sea Level Pressure  
Sea Level Pressure 30.16 in    
Wind  
Wind Speed 4 mph (SSW)    
Max Wind Speed 18 mph    
Max Gust Speed 31 mph    
Visibility 10 miles    
Events      
Averages and records for this station are not official NWS values.
T = Trace of Precipitation, MM = Missing Value Source: NWS Daily Summary

Daily Weather History Graph

Daily Weather History Graph

Search for Another Location

Airport:

Trip Planner

Search our weather history database for the weather conditions in past years. The results will help you decide how hot, cold, wet, or windy it might be!

Date:

Astronomy

Jun. 15, 2013 Rise Set
Actual Time 5:36 AM MDT 8:39 PM MDT
Civil Twilight 5:03 AM MDT 9:13 PM MDT
Nautical Twilight 4:20 AM MDT 9:55 PM MDT
Astronomical Twilight 3:31 AM MDT 10:45 PM MDT
Moon 12:15 PM MDT (6/15) 12:15 AM MDT (6/15)
Length of Visible Light 16h 09m
Length of Day
15h 03m
Waxing Crescent, 40% of the Moon is Illuminated
Jun 15
Waxing Crescent
Jun 16
First Quarter
Jun 23
Full
Jun 29
Last Quarter
Jul 8
New

Hourly Weather History & Observations

Time (MDT) Temp. Windchill Dew Point Humidity Pressure Visibility Wind Dir Wind Speed Gust Speed Precip Events Conditions
12:15 AM 50.9 °F - 29.1 °F 43% 30.15 in 10.0 mi East 6.9 mph - N/A   Clear
12:35 AM 49.5 °F - 31.3 °F 50% 30.16 in 10.0 mi ESE 5.8 mph - N/A   Clear
12:55 AM 48.4 °F - 30.2 °F 49% 30.16 in 10.0 mi East 3.5 mph - N/A   Clear
1:15 AM 47.3 °F - 29.7 °F 50% 30.18 in 10.0 mi Calm Calm - N/A   Clear
1:35 AM 48.2 °F - 30.0 °F 49% 30.18 in 10.0 mi East 5.8 mph - N/A   Clear
1:55 AM 48.9 °F - 29.1 °F 46% 30.17 in 10.0 mi ESE 6.9 mph - N/A   Clear
2:15 AM 47.7 °F - 28.4 °F 47% 30.18 in 10.0 mi ESE 3.5 mph - N/A   Clear
2:35 AM 44.4 °F - 30.2 °F 57% 30.18 in 10.0 mi Calm Calm - N/A   Clear
2:55 AM 44.8 °F - 30.6 °F 57% 30.18 in 10.0 mi Calm Calm - N/A   Clear
3:15 AM 42.3 °F 38.6 °F 30.7 °F 64% 30.18 in 10.0 mi ESE 5.8 mph - N/A   Clear
3:35 AM 40.8 °F - 31.1 °F 68% 30.18 in 10.0 mi Calm Calm - N/A   Clear
3:55 AM 41.7 °F - 29.8 °F 63% 30.18 in 10.0 mi Calm Calm - N/A   Clear
4:15 AM 42.6 °F - 30.2 °F 61% 30.18 in 10.0 mi Calm Calm - N/A   Clear
4:35 AM 41.5 °F - 29.8 °F 63% 30.18 in 10.0 mi Calm Calm - N/A   Clear
4:55 AM 40.3 °F 38.2 °F 29.5 °F 65% 30.19 in 10.0 mi ESE 3.5 mph - N/A   Clear
5:15 AM 38.7 °F - 29.7 °F 70% 30.20 in 10.0 mi Calm Calm - N/A   Clear
5:35 AM 39.6 °F - 30.2 °F 69% 30.19 in 10.0 mi Calm Calm - N/A   Clear
5:55 AM 38.7 °F - 30.0 °F 71% 30.20 in 10.0 mi Calm Calm - N/A   Clear
6:15 AM 38.3 °F - 30.2 °F 73% 30.19 in 10.0 mi Calm Calm - N/A   Clear
6:35 AM 39.2 °F - 27.9 °F 64% 30.20 in 10.0 mi Calm Calm - N/A   Clear
6:55 AM 41.0 °F - 28.8 °F 62% 30.21 in 10.0 mi Calm Calm - N/A   Clear
7:15 AM 43.0 °F - 28.9 °F 58% 30.21 in 10.0 mi Calm Calm - N/A   Clear
7:35 AM 45.0 °F - 30.0 °F 56% 30.20 in 10.0 mi Calm Calm - N/A   Clear
7:55 AM 45.7 °F - 30.7 °F 56% 30.19 in 10.0 mi Calm Calm - N/A   Clear
8:15 AM 48.4 °F - 31.3 °F 52% 30.20 in 10.0 mi Calm Calm - N/A   Clear
8:35 AM 51.1 °F - 30.6 °F 45% 30.20 in 10.0 mi Calm Calm - N/A   Clear
8:55 AM 54.1 °F - 29.8 °F 39% 30.20 in 10.0 mi Calm Calm - N/A   Clear
9:15 AM 56.5 °F - 30.9 °F 38% 30.18 in 10.0 mi Calm Calm - N/A   Clear
9:35 AM 57.4 °F - 31.3 °F 37% 30.18 in 10.0 mi Calm Calm - N/A   Clear
9:55 AM 59.4 °F - 30.9 °F 34% 30.18 in 10.0 mi Calm Calm - N/A   Clear
10:15 AM 61.3 °F - 29.7 °F 30% 30.17 in 10.0 mi Calm Calm - N/A   Clear
10:35 AM 64.4 °F - 29.5 °F 27% 30.17 in 10.0 mi Calm Calm - N/A   Clear
10:55 AM 67.3 °F - 29.3 °F 24% 30.17 in 10.0 mi Calm Calm - N/A   Clear
11:15 AM 68.9 °F - 28.2 °F 22% 30.17 in 10.0 mi West 4.6 mph - N/A   Clear
11:35 AM 70.2 °F - 28.9 °F 22% 30.17 in 10.0 mi Calm Calm - N/A   Clear
11:55 AM 71.6 °F - 25.5 °F 18% 30.17 in 10.0 mi SW 5.8 mph - N/A   Clear
12:15 PM 72.7 °F - 19.0 °F 13% 30.17 in 10.0 mi SSW 4.6 mph - N/A   Clear
12:35 PM 73.4 °F - 9.3 °F 8% 30.17 in 10.0 mi Calm Calm - N/A   Clear
12:55 PM 75.0 °F - 7.3 °F 7% 30.16 in 10.0 mi South 5.8 mph - N/A   Clear
1:15 PM 76.1 °F - 3.2 °F 6% 30.16 in 10.0 mi South 3.5 mph - N/A   Clear
1:35 PM 76.8 °F - 7.9 °F 7% 30.16 in 10.0 mi South 4.6 mph 17.3 mph N/A   Clear
1:55 PM 78.4 °F - 10.4 °F 7% 30.15 in 10.0 mi WSW 15.0 mph 21.9 mph N/A   Clear
2:15 PM 78.4 °F - 11.7 °F 8% 30.15 in 10.0 mi West 16.1 mph 24.2 mph N/A   Clear
2:35 PM 78.3 °F - 8.6 °F 7% 30.15 in 10.0 mi WSW 18.4 mph 31.1 mph N/A   Clear
2:55 PM 78.8 °F - 8.1 °F 7% 30.14 in 10.0 mi WSW 17.3 mph 23.0 mph N/A   Clear
3:15 PM 78.8 °F - 8.1 °F 7% 30.14 in 10.0 mi WSW 10.4 mph 20.7 mph N/A   Clear
3:35 PM 78.4 °F - 5.7 °F 6% 30.13 in 10.0 mi West 18.4 mph 24.2 mph N/A   Clear
3:55 PM 78.6 °F - 5.2 °F 6% 30.13 in 10.0 mi WSW 10.4 mph 25.3 mph N/A   Clear
4:15 PM 80.1 °F - 8.6 °F 7% 30.12 in 10.0 mi West 13.8 mph 18.4 mph N/A   Clear
4:35 PM 80.1 °F - 3.2 °F 5% 30.12 in 10.0 mi West 11.5 mph 18.4 mph N/A   Clear
4:55 PM 79.0 °F - 3.2 °F 5% 30.12 in 10.0 mi West 11.5 mph 21.9 mph N/A   Clear
5:15 PM 79.2 °F - 0.7 °F 5% 30.12 in 10.0 mi West 9.2 mph 19.6 mph N/A   Clear
5:35 PM 79.7 °F - 4.5 °F 6% 30.11 in 10.0 mi West 11.5 mph - N/A   Clear
5:55 PM 79.0 °F - 5.2 °F 6% 30.11 in 10.0 mi West 4.6 mph - N/A   Clear
6:15 PM 78.4 °F - 3.9 °F 6% 30.11 in 10.0 mi West 11.5 mph 18.4 mph N/A   Clear
6:35 PM 78.1 °F - 11.7 °F 8% 30.11 in 10.0 mi West 8.1 mph - N/A   Clear
6:55 PM 75.4 °F - 16.0 °F 11% 30.12 in 10.0 mi West 6.9 mph - N/A   Clear
7:15 PM 75.6 °F - 17.6 °F 11% 30.12 in 10.0 mi West 5.8 mph - N/A   Clear
7:35 PM 72.0 °F - 19.2 °F 14% 30.12 in 10.0 mi Calm Calm - N/A   Clear
7:55 PM 70.5 °F - 12.6 °F 11% 30.13 in 10.0 mi Calm Calm - N/A   Clear
8:15 PM 70.2 °F - 22.3 °F 16% 30.14 in 10.0 mi Calm Calm - N/A   Clear
8:35 PM 67.8 °F - 24.1 °F 19% 30.14 in 10.0 mi Calm Calm - N/A   Clear
8:55 PM 65.8 °F - 23.9 °F 20% 30.14 in 10.0 mi Calm Calm - N/A   Clear
9:15 PM 63.0 °F - 23.2 °F 22% 30.14 in 10.0 mi East 3.5 mph - N/A   Clear
9:35 PM 63.0 °F - 26.8 °F 25% 30.15 in 10.0 mi ESE 3.5 mph - N/A   Clear
9:55 PM 62.1 °F - 26.6 °F 26% 30.17 in 10.0 mi Calm Calm - N/A   Clear
10:15 PM 59.2 °F - 25.7 °F 28% 30.17 in 10.0 mi Calm Calm - N/A   Clear
10:35 PM 59.9 °F - 25.7 °F 27% 30.18 in 10.0 mi SSE 9.2 mph - N/A   Clear
10:55 PM 57.4 °F - 30.0 °F 35% 30.20 in 10.0 mi NE 5.8 mph - N/A   Clear
11:15 PM 59.5 °F - 24.6 °F 26% 30.19 in 10.0 mi ESE 10.4 mph - N/A   Clear
11:35 PM 60.6 °F - 23.2 °F 24% 30.19 in 10.0 mi Calm Calm - N/A   Clear
11:55 PM 57.2 °F - 26.2 °F 31% 30.19 in 10.0 mi Calm Calm - N/A   Clear